Year,Month,Day,Hour,Minute,Value (Times are PST for temperature in C)
2021,06,28,00,00,23.60
2021,06,28,00,01,23.60
2021,06,28,00,02,23.50
2021,06,28,00,03,23.50
2021,06,28,00,04,23.50
2021,06,28,00,05,23.60
2021,06,28,00,06,23.60
2021,06,28,00,07,23.60
2021,06,28,00,08,23.60
2021,06,28,00,09,23.60
2021,06,28,00,10,23.60
2021,06,28,00,11,23.60
2021,06,28,00,12,23.60
2021,06,28,00,13,23.60
2021,06,28,00,14,23.50
2021,06,28,00,15,23.50
2021,06,28,00,16,23.50
2021,06,28,00,17,23.40
2021,06,28,00,18,23.40
2021,06,28,00,19,23.40
2021,06,28,00,20,23.40
2021,06,28,00,21,23.40
2021,06,28,00,22,23.40
2021,06,28,00,23,23.40
2021,06,28,00,24,23.40
2021,06,28,00,25,23.40
2021,06,28,00,26,23.40
2021,06,28,00,27,23.40
2021,06,28,00,28,23.40
2021,06,28,00,29,23.40
2021,06,28,00,30,23.30
2021,06,28,00,31,23.30
2021,06,28,00,32,23.30
2021,06,28,00,33,23.30
2021,06,28,00,34,23.30
2021,06,28,00,35,23.20
2021,06,28,00,36,23.20
2021,06,28,00,37,23.20
2021,06,28,00,38,23.20
2021,06,28,00,39,23.10
2021,06,28,00,40,23.10
2021,06,28,00,41,23.10
2021,06,28,00,42,23.10
2021,06,28,00,43,23.10
2021,06,28,00,44,23.00
2021,06,28,00,45,23.00
2021,06,28,00,46,23.00
2021,06,28,00,47,22.90
2021,06,28,00,48,22.90
2021,06,28,00,49,22.90
2021,06,28,00,50,22.90
2021,06,28,00,51,22.90
2021,06,28,00,52,22.90
2021,06,28,00,53,22.90
2021,06,28,00,54,22.90
2021,06,28,00,55,23.00
2021,06,28,00,56,23.00
2021,06,28,00,57,23.00
2021,06,28,00,58,23.00
2021,06,28,00,59,23.00
2021,06,28,01,00,23.00
2021,06,28,01,01,23.00
2021,06,28,01,02,23.00
2021,06,28,01,03,22.90
2021,06,28,01,04,22.90
2021,06,28,01,05,22.90
2021,06,28,01,06,22.90
2021,06,28,01,07,22.90
2021,06,28,01,08,22.90
2021,06,28,01,09,22.90
2021,06,28,01,10,22.90
2021,06,28,01,11,22.90
2021,06,28,01,12,22.90
2021,06,28,01,13,22.90
2021,06,28,01,14,22.90
2021,06,28,01,15,22.80
2021,06,28,01,16,22.80
2021,06,28,01,17,22.80
2021,06,28,01,18,22.80
2021,06,28,01,19,22.80
2021,06,28,01,20,22.70
2021,06,28,01,21,22.70
2021,06,28,01,22,22.70
2021,06,28,01,23,22.70
2021,06,28,01,24,22.70
2021,06,28,01,25,22.70
2021,06,28,01,26,22.70
2021,06,28,01,27,22.70
2021,06,28,01,28,22.70
2021,06,28,01,29,22.70
2021,06,28,01,30,22.70
2021,06,28,01,31,22.70
2021,06,28,01,32,22.70
2021,06,28,01,33,22.60
2021,06,28,01,34,22.60
2021,06,28,01,35,22.50
2021,06,28,01,36,22.50
2021,06,28,01,37,22.40
2021,06,28,01,38,22.40
2021,06,28,01,39,22.30
2021,06,28,01,40,22.30
2021,06,28,01,41,22.30
2021,06,28,01,42,22.30
2021,06,28,01,43,22.40
2021,06,28,01,44,22.40
2021,06,28,01,45,22.40
2021,06,28,01,46,22.40
2021,06,28,01,47,22.40
2021,06,28,01,48,22.40
2021,06,28,01,49,22.40
2021,06,28,01,50,22.40
2021,06,28,01,51,22.40
2021,06,28,01,52,22.40
2021,06,28,01,53,22.40
2021,06,28,01,54,22.40
2021,06,28,01,55,22.40
2021,06,28,01,56,22.40
2021,06,28,01,57,22.30
2021,06,28,01,58,22.30
2021,06,28,01,59,22.20
2021,06,28,02,00,22.20
2021,06,28,02,01,22.10
2021,06,28,02,02,22.10
2021,06,28,02,03,22.10
2021,06,28,02,04,22.10
2021,06,28,02,05,22.10
2021,06,28,02,06,22.10
2021,06,28,02,07,22.10
2021,06,28,02,08,22.20
2021,06,28,02,09,22.20
2021,06,28,02,10,22.20
2021,06,28,02,11,22.20
2021,06,28,02,12,22.20
2021,06,28,02,13,22.20
2021,06,28,02,14,22.20
2021,06,28,02,15,22.20
2021,06,28,02,16,22.20
2021,06,28,02,17,22.20
2021,06,28,02,18,22.20
2021,06,28,02,19,22.20
2021,06,28,02,20,22.20
2021,06,28,02,21,22.20
2021,06,28,02,22,22.20
2021,06,28,02,23,22.20
2021,06,28,02,24,22.20
2021,06,28,02,25,22.20
2021,06,28,02,26,22.20
2021,06,28,02,27,22.20
2021,06,28,02,28,22.20
2021,06,28,02,29,22.10
2021,06,28,02,30,22.10
2021,06,28,02,31,22.10
2021,06,28,02,32,22.10
2021,06,28,02,33,22.00
2021,06,28,02,34,22.00
2021,06,28,02,35,21.90
2021,06,28,02,36,21.90
2021,06,28,02,37,21.90
2021,06,28,02,38,21.90
2021,06,28,02,39,21.90
2021,06,28,02,40,21.90
2021,06,28,02,41,21.90
2021,06,28,02,42,21.90
2021,06,28,02,43,21.80
2021,06,28,02,44,21.80
2021,06,28,02,45,21.80
2021,06,28,02,46,21.80
2021,06,28,02,47,21.80
2021,06,28,02,48,21.80
2021,06,28,02,49,21.90
2021,06,28,02,50,21.90
2021,06,28,02,51,21.90
2021,06,28,02,52,21.90
2021,06,28,02,53,22.00
2021,06,28,02,54,22.00
2021,06,28,02,55,22.10
2021,06,28,02,56,22.10
2021,06,28,02,57,22.10
2021,06,28,02,58,22.10
2021,06,28,02,59,22.10
2021,06,28,03,00,22.10
2021,06,28,03,01,22.20
2021,06,28,03,02,22.20
2021,06,28,03,03,22.10
2021,06,28,03,04,22.10
2021,06,28,03,05,22.20
2021,06,28,03,06,22.20
2021,06,28,03,07,22.20
2021,06,28,03,08,22.30
2021,06,28,03,09,22.30
2021,06,28,03,10,22.30
2021,06,28,03,11,22.40
2021,06,28,03,12,22.40
2021,06,28,03,13,22.40
2021,06,28,03,14,22.40
2021,06,28,03,15,22.40
2021,06,28,03,16,22.40
2021,06,28,03,17,22.30
2021,06,28,03,18,22.20
2021,06,28,03,19,22.10
2021,06,28,03,20,22.00
2021,06,28,03,21,21.80
2021,06,28,03,22,21.80
2021,06,28,03,23,21.70
2021,06,28,03,24,21.60
2021,06,28,03,25,21.60
2021,06,28,03,26,21.70
2021,06,28,03,27,21.80
2021,06,28,03,28,21.80
2021,06,28,03,29,21.80
2021,06,28,03,30,21.70
2021,06,28,03,31,21.50
2021,06,28,03,32,21.40
2021,06,28,03,33,21.20
2021,06,28,03,34,21.10
2021,06,28,03,35,21.10
2021,06,28,03,36,21.00
2021,06,28,03,37,20.90
2021,06,28,03,38,20.90
2021,06,28,03,39,20.90
2021,06,28,03,40,20.90
2021,06,28,03,41,20.90
2021,06,28,03,42,20.90
2021,06,28,03,43,21.00
2021,06,28,03,44,20.90
2021,06,28,03,45,20.90
2021,06,28,03,46,20.90
2021,06,28,03,47,20.90
2021,06,28,03,48,21.00
2021,06,28,03,49,21.10
2021,06,28,03,50,21.10
2021,06,28,03,51,21.20
2021,06,28,03,52,21.30
2021,06,28,03,53,21.50
2021,06,28,03,54,21.60
2021,06,28,03,55,21.70
2021,06,28,03,56,21.80
2021,06,28,03,57,21.80
2021,06,28,03,58,21.80
2021,06,28,03,59,21.80
2021,06,28,04,00,21.80
2021,06,28,04,01,21.80
2021,06,28,04,02,21.80
2021,06,28,04,03,21.80
2021,06,28,04,04,21.90
2021,06,28,04,05,21.90
2021,06,28,04,06,21.80
2021,06,28,04,07,21.80
2021,06,28,04,08,21.70
2021,06,28,04,09,21.70
2021,06,28,04,10,21.60
2021,06,28,04,11,21.60
2021,06,28,04,12,21.60
2021,06,28,04,13,21.60
2021,06,28,04,14,21.60
2021,06,28,04,15,21.60
2021,06,28,04,16,21.60
2021,06,28,04,17,21.60
2021,06,28,04,18,21.60
2021,06,28,04,19,21.50
2021,06,28,04,20,21.50
2021,06,28,04,21,21.40
2021,06,28,04,22,21.40
2021,06,28,04,23,21.40
2021,06,28,04,24,21.40
2021,06,28,04,25,21.40
2021,06,28,04,26,21.40
2021,06,28,04,27,21.40
2021,06,28,04,28,21.40
2021,06,28,04,29,21.40
2021,06,28,04,30,21.40
2021,06,28,04,31,21.40
2021,06,28,04,32,21.40
2021,06,28,04,33,21.40
2021,06,28,04,34,21.40
2021,06,28,04,35,21.40
2021,06,28,04,36,21.40
2021,06,28,04,37,21.40
2021,06,28,04,38,21.40
2021,06,28,04,39,21.40
2021,06,28,04,40,21.40
2021,06,28,04,41,21.40
2021,06,28,04,42,21.30
2021,06,28,04,43,21.30
2021,06,28,04,44,21.30
2021,06,28,04,45,21.30
2021,06,28,04,46,21.30
2021,06,28,04,47,21.30
2021,06,28,04,48,21.20
2021,06,28,04,49,21.20
2021,06,28,04,50,21.20
2021,06,28,04,51,21.10
2021,06,28,04,52,21.10
2021,06,28,04,53,21.10
2021,06,28,04,54,21.10
2021,06,28,04,55,21.00
2021,06,28,04,56,21.00
2021,06,28,04,57,21.00
2021,06,28,04,58,20.90
2021,06,28,04,59,20.90
2021,06,28,05,00,20.90
2021,06,28,05,01,20.90
2021,06,28,05,02,20.90
2021,06,28,05,03,20.90
2021,06,28,05,04,20.90
2021,06,28,05,05,20.90
2021,06,28,05,06,20.90
2021,06,28,05,07,20.90
2021,06,28,05,08,20.90
2021,06,28,05,09,20.80
2021,06,28,05,10,20.80
2021,06,28,05,11,20.80
2021,06,28,05,12,20.80
2021,06,28,05,13,20.80
2021,06,28,05,14,20.80
2021,06,28,05,15,20.80
2021,06,28,05,16,20.80
2021,06,28,05,17,20.80
2021,06,28,05,18,20.80
2021,06,28,05,19,20.90
2021,06,28,05,20,20.90
2021,06,28,05,21,20.90
2021,06,28,05,22,20.90
2021,06,28,05,23,20.90
2021,06,28,05,24,20.90
2021,06,28,05,25,20.90
2021,06,28,05,26,20.90
2021,06,28,05,27,20.90
2021,06,28,05,28,20.90
2021,06,28,05,29,20.90
2021,06,28,05,30,20.90
2021,06,28,05,31,20.90
2021,06,28,05,32,21.00
2021,06,28,05,33,21.00
2021,06,28,05,34,21.00
2021,06,28,05,35,21.10
2021,06,28,05,36,21.10
2021,06,28,05,37,21.20
2021,06,28,05,38,21.20
2021,06,28,05,39,21.20
2021,06,28,05,40,21.20
2021,06,28,05,41,21.30
2021,06,28,05,42,21.30
2021,06,28,05,43,21.30
2021,06,28,05,44,21.30
2021,06,28,05,45,21.30
2021,06,28,05,46,21.30
2021,06,28,05,47,21.30
2021,06,28,05,48,21.30
2021,06,28,05,49,21.30
2021,06,28,05,50,21.30
2021,06,28,05,51,21.30
2021,06,28,05,52,21.30
2021,06,28,05,53,21.30
2021,06,28,05,54,21.30
2021,06,28,05,55,21.30
2021,06,28,05,56,21.30
2021,06,28,05,57,21.30
2021,06,28,05,58,21.30
2021,06,28,05,59,21.40
2021,06,28,06,00,21.50
2021,06,28,06,01,21.60
2021,06,28,06,02,21.70
2021,06,28,06,03,21.80
2021,06,28,06,04,21.80
2021,06,28,06,05,21.90
2021,06,28,06,06,22.10
2021,06,28,06,07,22.30
2021,06,28,06,08,22.60
2021,06,28,06,09,22.90
2021,06,28,06,10,23.30
2021,06,28,06,11,23.80
2021,06,28,06,12,24.20
2021,06,28,06,13,24.50
2021,06,28,06,14,24.80
2021,06,28,06,15,25.00
2021,06,28,06,16,25.20
2021,06,28,06,17,25.40
2021,06,28,06,18,25.60
2021,06,28,06,19,25.70
2021,06,28,06,20,25.80
2021,06,28,06,21,25.90
2021,06,28,06,22,26.00
2021,06,28,06,23,26.10
2021,06,28,06,24,26.10
2021,06,28,06,25,26.20
2021,06,28,06,26,26.20
2021,06,28,06,27,26.30
2021,06,28,06,28,26.30
2021,06,28,06,29,26.40
2021,06,28,06,30,26.40
2021,06,28,06,31,26.50
2021,06,28,06,32,26.60
2021,06,28,06,33,26.70
2021,06,28,06,34,26.70
2021,06,28,06,35,26.70
2021,06,28,06,36,26.80
2021,06,28,06,37,26.80
2021,06,28,06,38,26.90
2021,06,28,06,39,26.90
2021,06,28,06,40,27.00
2021,06,28,06,41,27.10
2021,06,28,06,42,27.10
2021,06,28,06,43,27.20
2021,06,28,06,44,27.20
2021,06,28,06,45,27.30
2021,06,28,06,46,27.40
2021,06,28,06,47,27.40
2021,06,28,06,48,27.50
2021,06,28,06,49,27.50
2021,06,28,06,50,27.50
2021,06,28,06,51,27.60
2021,06,28,06,52,27.60
2021,06,28,06,53,27.60
2021,06,28,06,54,27.60
2021,06,28,06,55,27.60
2021,06,28,06,56,27.70
2021,06,28,06,57,27.70
2021,06,28,06,58,27.70
2021,06,28,06,59,27.70
2021,06,28,07,00,27.70
2021,06,28,07,01,27.80
2021,06,28,07,02,27.80
2021,06,28,07,03,27.80
2021,06,28,07,04,27.80
2021,06,28,07,05,27.80
2021,06,28,07,06,27.90
2021,06,28,07,07,27.90
2021,06,28,07,08,28.00
2021,06,28,07,09,28.10
2021,06,28,07,10,28.10
2021,06,28,07,11,28.20
2021,06,28,07,12,28.20
2021,06,28,07,13,28.30
2021,06,28,07,14,28.30
2021,06,28,07,15,28.40
2021,06,28,07,16,28.40
2021,06,28,07,17,28.40
2021,06,28,07,18,28.50
2021,06,28,07,19,28.60
2021,06,28,07,20,28.60
2021,06,28,07,21,28.60
2021,06,28,07,22,28.70
2021,06,28,07,23,28.70
2021,06,28,07,24,28.80
2021,06,28,07,25,28.80
2021,06,28,07,26,28.90
2021,06,28,07,27,28.90
2021,06,28,07,28,28.90
2021,06,28,07,29,29.00
2021,06,28,07,30,29.00
2021,06,28,07,31,29.10
2021,06,28,07,32,29.10
2021,06,28,07,33,29.20
2021,06,28,07,34,29.20
2021,06,28,07,35,29.30
2021,06,28,07,36,29.30
2021,06,28,07,37,29.40
2021,06,28,07,38,29.40
2021,06,28,07,39,29.40
2021,06,28,07,40,29.50
2021,06,28,07,41,29.60
2021,06,28,07,42,29.60
2021,06,28,07,43,29.60
2021,06,28,07,44,29.60
2021,06,28,07,45,29.60
2021,06,28,07,46,29.70
2021,06,28,07,47,29.70
2021,06,28,07,48,29.70
2021,06,28,07,49,29.70
2021,06,28,07,50,29.70
2021,06,28,07,51,29.80
2021,06,28,07,52,29.80
2021,06,28,07,53,29.80
2021,06,28,07,54,29.80
2021,06,28,07,55,29.80
2021,06,28,07,56,29.80
2021,06,28,07,57,29.90
2021,06,28,07,58,29.90
2021,06,28,07,59,30.00
2021,06,28,08,00,30.00
2021,06,28,08,01,30.10
2021,06,28,08,02,30.10
2021,06,28,08,03,30.20
2021,06,28,08,04,30.20
2021,06,28,08,05,30.30
2021,06,28,08,06,30.30
2021,06,28,08,07,30.30
2021,06,28,08,08,30.30
2021,06,28,08,09,30.40
2021,06,28,08,10,30.40
2021,06,28,08,11,30.40
2021,06,28,08,12,30.50
2021,06,28,08,13,30.50
2021,06,28,08,14,30.50
2021,06,28,08,15,30.60
2021,06,28,08,16,30.60
2021,06,28,08,17,30.60
2021,06,28,08,18,30.60
2021,06,28,08,19,30.70
2021,06,28,08,20,30.70
2021,06,28,08,21,30.70
2021,06,28,08,22,30.70
2021,06,28,08,23,30.70
2021,06,28,08,24,30.70
2021,06,28,08,25,30.80
2021,06,28,08,26,30.80
2021,06,28,08,27,30.80
2021,06,28,08,28,30.90
2021,06,28,08,29,30.90
2021,06,28,08,30,30.90
2021,06,28,08,31,30.90
2021,06,28,08,32,30.90
2021,06,28,08,33,31.00
2021,06,28,08,34,31.00
2021,06,28,08,35,31.10
2021,06,28,08,36,31.20
2021,06,28,08,37,31.20
2021,06,28,08,38,31.30
2021,06,28,08,39,31.40
2021,06,28,08,40,31.40
2021,06,28,08,41,31.50
2021,06,28,08,42,31.50
2021,06,28,08,43,31.60
2021,06,28,08,44,31.60
2021,06,28,08,45,31.70
2021,06,28,08,46,31.70
2021,06,28,08,47,31.70
2021,06,28,08,48,31.80
2021,06,28,08,49,31.80
2021,06,28,08,50,31.90
2021,06,28,08,51,31.90
2021,06,28,08,52,31.90
2021,06,28,08,53,32.00
2021,06,28,08,54,32.00
2021,06,28,08,55,32.10
2021,06,28,08,56,32.10
2021,06,28,08,57,32.10
2021,06,28,08,58,32.10
2021,06,28,08,59,32.10
2021,06,28,09,00,32.20
2021,06,28,09,01,32.20
2021,06,28,09,02,32.20
2021,06,28,09,03,32.20
2021,06,28,09,04,32.30
2021,06,28,09,05,32.30
2021,06,28,09,06,32.30
2021,06,28,09,07,32.30
2021,06,28,09,08,32.30
2021,06,28,09,09,32.30
2021,06,28,09,10,32.30
2021,06,28,09,11,32.30
2021,06,28,09,12,32.30
2021,06,28,09,13,32.30
2021,06,28,09,14,32.30
2021,06,28,09,15,32.20
2021,06,28,09,16,32.20
2021,06,28,09,17,32.10
2021,06,28,09,18,32.10
2021,06,28,09,19,32.10
2021,06,28,09,20,32.10
2021,06,28,09,21,32.10
2021,06,28,09,22,32.00
2021,06,28,09,23,32.00
2021,06,28,09,24,32.00
2021,06,28,09,25,32.00
2021,06,28,09,26,32.00
2021,06,28,09,27,32.00
2021,06,28,09,28,32.00
2021,06,28,09,29,32.00
2021,06,28,09,30,32.00
2021,06,28,09,31,32.10
2021,06,28,09,32,32.10
2021,06,28,09,33,32.10
2021,06,28,09,34,32.10
2021,06,28,09,35,32.10
2021,06,28,09,36,32.10
2021,06,28,09,37,32.10
2021,06,28,09,38,32.10
2021,06,28,09,39,32.10
2021,06,28,09,40,32.20
2021,06,28,09,41,32.20
2021,06,28,09,42,32.20
2021,06,28,09,43,32.20
2021,06,28,09,44,32.20
2021,06,28,09,45,32.20
2021,06,28,09,46,32.20
2021,06,28,09,47,32.20
2021,06,28,09,48,32.20
2021,06,28,09,49,32.20
2021,06,28,09,50,32.20
2021,06,28,09,51,32.30
2021,06,28,09,52,32.30
2021,06,28,09,53,32.30
2021,06,28,09,54,32.30
2021,06,28,09,55,32.30
2021,06,28,09,56,32.40
2021,06,28,09,57,32.40
2021,06,28,09,58,32.40
2021,06,28,09,59,32.40
2021,06,28,10,00,32.40
2021,06,28,10,01,32.40
2021,06,28,10,02,32.40
2021,06,28,10,03,32.40
2021,06,28,10,04,32.40
2021,06,28,10,05,32.50
2021,06,28,10,06,32.50
2021,06,28,10,07,32.50
2021,06,28,10,08,32.50
2021,06,28,10,09,32.50
2021,06,28,10,10,32.50
2021,06,28,10,11,32.50
2021,06,28,10,12,32.40
2021,06,28,10,13,32.40
2021,06,28,10,14,32.40
2021,06,28,10,15,32.40
2021,06,28,10,16,32.40
2021,06,28,10,17,32.40
2021,06,28,10,18,32.50
2021,06,28,10,19,32.50
2021,06,28,10,20,32.50
2021,06,28,10,21,32.50
2021,06,28,10,22,32.50
2021,06,28,10,23,32.50
2021,06,28,10,24,32.50
2021,06,28,10,25,32.60
2021,06,28,10,26,32.60
2021,06,28,10,27,32.60
2021,06,28,10,28,32.60
2021,06,28,10,29,32.50
2021,06,28,10,30,32.50
2021,06,28,10,31,32.50
2021,06,28,10,32,32.40
2021,06,28,10,33,32.40
2021,06,28,10,34,32.40
2021,06,28,10,35,32.30
2021,06,28,10,36,32.30
2021,06,28,10,37,32.30
2021,06,28,10,38,32.30
2021,06,28,10,39,32.30
2021,06,28,10,40,32.40
2021,06,28,10,41,32.40
2021,06,28,10,42,32.50
2021,06,28,10,43,32.50
2021,06,28,10,44,32.60
2021,06,28,10,45,32.60
2021,06,28,10,46,32.70
2021,06,28,10,47,32.70
2021,06,28,10,48,32.70
2021,06,28,10,49,32.80
2021,06,28,10,50,32.80
2021,06,28,10,51,32.80
2021,06,28,10,52,32.80
2021,06,28,10,53,32.90
2021,06,28,10,54,32.90
2021,06,28,10,55,32.90
2021,06,28,10,56,32.90
2021,06,28,10,57,32.90
2021,06,28,10,58,32.90
2021,06,28,10,59,32.90
2021,06,28,11,00,32.90
2021,06,28,11,01,32.90
2021,06,28,11,02,33.00
2021,06,28,11,03,33.00
2021,06,28,11,04,33.00
2021,06,28,11,05,33.00
2021,06,28,11,06,33.10
2021,06,28,11,07,33.10
2021,06,28,11,08,33.10
2021,06,28,11,09,33.10
2021,06,28,11,10,33.10
2021,06,28,11,11,33.10
2021,06,28,11,12,33.10
2021,06,28,11,13,33.10
2021,06,28,11,14,33.10
2021,06,28,11,15,33.10
2021,06,28,11,16,33.20
2021,06,28,11,17,33.20
2021,06,28,11,18,33.20
2021,06,28,11,19,33.30
2021,06,28,11,20,33.30
2021,06,28,11,21,33.30
2021,06,28,11,22,33.30
2021,06,28,11,23,33.30
2021,06,28,11,24,33.40
2021,06,28,11,25,33.40
2021,06,28,11,26,33.40
2021,06,28,11,27,33.50
2021,06,28,11,28,33.50
2021,06,28,11,29,33.60
2021,06,28,11,30,33.60
2021,06,28,11,31,33.60
2021,06,28,11,32,33.70
2021,06,28,11,33,33.70
2021,06,28,11,34,33.70
2021,06,28,11,35,33.80
2021,06,28,11,36,33.80
2021,06,28,11,37,33.80
2021,06,28,11,38,33.80
2021,06,28,11,39,33.80
2021,06,28,11,40,33.80
2021,06,28,11,41,33.80
2021,06,28,11,42,33.80
2021,06,28,11,43,33.70
2021,06,28,11,44,33.70
2021,06,28,11,45,33.70
2021,06,28,11,46,33.70
2021,06,28,11,47,33.70
2021,06,28,11,48,33.70
2021,06,28,11,49,33.70
2021,06,28,11,50,33.70
2021,06,28,11,51,33.70
2021,06,28,11,52,33.70
2021,06,28,11,53,33.70
2021,06,28,11,54,33.70
2021,06,28,11,55,33.70
2021,06,28,11,56,33.80
2021,06,28,11,57,33.80
2021,06,28,11,58,33.80
2021,06,28,11,59,33.90
2021,06,28,12,00,33.90
2021,06,28,12,01,34.00
2021,06,28,12,02,34.00
2021,06,28,12,03,34.10
2021,06,28,12,04,34.10
2021,06,28,12,05,34.10
2021,06,28,12,06,34.10
2021,06,28,12,07,34.10
2021,06,28,12,08,34.10
2021,06,28,12,09,34.10
2021,06,28,12,10,34.10
2021,06,28,12,11,34.10
2021,06,28,12,12,34.10
2021,06,28,12,13,34.20
2021,06,28,12,14,34.20
2021,06,28,12,15,34.30
2021,06,28,12,16,34.30
2021,06,28,12,17,34.30
2021,06,28,12,18,34.30
2021,06,28,12,19,34.40
2021,06,28,12,20,34.40
2021,06,28,12,21,34.40
2021,06,28,12,22,34.40
2021,06,28,12,23,34.40
2021,06,28,12,24,34.40
2021,06,28,12,25,34.40
2021,06,28,12,26,34.40
2021,06,28,12,27,34.30
2021,06,28,12,28,34.30
2021,06,28,12,29,34.30
2021,06,28,12,30,34.30
2021,06,28,12,31,34.30
2021,06,28,12,32,34.30
2021,06,28,12,33,34.30
2021,06,28,12,34,34.30
2021,06,28,12,35,34.30
2021,06,28,12,36,34.30
2021,06,28,12,37,34.30
2021,06,28,12,38,34.30
2021,06,28,12,39,34.30
2021,06,28,12,40,34.40
2021,06,28,12,41,34.40
2021,06,28,12,42,34.50
2021,06,28,12,43,34.50
2021,06,28,12,44,34.60
2021,06,28,12,45,34.60
2021,06,28,12,46,34.60
2021,06,28,12,47,34.60
2021,06,28,12,48,34.60
2021,06,28,12,49,34.60
2021,06,28,12,50,34.60
2021,06,28,12,51,34.60
2021,06,28,12,52,34.60
2021,06,28,12,53,34.70
2021,06,28,12,54,34.70
2021,06,28,12,55,34.70
2021,06,28,12,56,34.70
2021,06,28,12,57,34.60
2021,06,28,12,58,34.60
2021,06,28,12,59,34.70
2021,06,28,13,00,34.70
2021,06,28,13,01,34.70
2021,06,28,13,02,34.70
2021,06,28,13,03,34.70
2021,06,28,13,04,34.70
2021,06,28,13,05,34.70
2021,06,28,13,06,34.70
2021,06,28,13,07,34.70
2021,06,28,13,08,34.70
2021,06,28,13,09,34.70
2021,06,28,13,10,34.70
2021,06,28,13,11,34.80
2021,06,28,13,12,34.80
2021,06,28,13,13,34.90
2021,06,28,13,14,35.00
2021,06,28,13,15,35.00
2021,06,28,13,16,35.10
2021,06,28,13,17,35.10
2021,06,28,13,18,35.20
2021,06,28,13,19,35.20
2021,06,28,13,20,35.20
2021,06,28,13,21,35.20
2021,06,28,13,22,35.20
2021,06,28,13,23,35.10
2021,06,28,13,24,35.10
2021,06,28,13,25,35.20
2021,06,28,13,26,35.20
2021,06,28,13,27,35.20
2021,06,28,13,28,35.20
2021,06,28,13,29,35.20
2021,06,28,13,30,35.20
2021,06,28,13,31,35.20
2021,06,28,13,32,35.20
2021,06,28,13,33,35.20
2021,06,28,13,34,35.20
2021,06,28,13,35,35.20
2021,06,28,13,36,35.20
2021,06,28,13,37,35.20
2021,06,28,13,38,35.20
2021,06,28,13,39,35.20
2021,06,28,13,40,35.30
2021,06,28,13,41,35.30
2021,06,28,13,42,35.30
2021,06,28,13,43,35.30
2021,06,28,13,44,35.30
2021,06,28,13,45,35.30
2021,06,28,13,46,35.30
2021,06,28,13,47,35.30
2021,06,28,13,48,35.30
2021,06,28,13,49,35.30
2021,06,28,13,50,35.40
2021,06,28,13,51,35.40
2021,06,28,13,52,35.50
2021,06,28,13,53,35.60
2021,06,28,13,54,35.60
2021,06,28,13,55,35.60
2021,06,28,13,56,35.70
2021,06,28,13,57,35.70
2021,06,28,13,58,35.70
2021,06,28,13,59,35.70
2021,06,28,14,00,35.70
2021,06,28,14,01,35.70
2021,06,28,14,02,35.80
2021,06,28,14,03,35.80
2021,06,28,14,04,35.80
2021,06,28,14,05,35.80
2021,06,28,14,06,35.80
2021,06,28,14,07,35.80
2021,06,28,14,08,35.90
2021,06,28,14,09,35.80
2021,06,28,14,10,35.80
2021,06,28,14,11,35.80
2021,06,28,14,12,35.80
2021,06,28,14,13,35.80
2021,06,28,14,14,35.80
2021,06,28,14,15,35.80
2021,06,28,14,16,35.80
2021,06,28,14,17,35.80
2021,06,28,14,18,35.80
2021,06,28,14,19,35.80
2021,06,28,14,20,35.90
2021,06,28,14,21,35.90
2021,06,28,14,22,36.00
2021,06,28,14,23,36.00
2021,06,28,14,24,36.10
2021,06,28,14,25,36.10
2021,06,28,14,26,36.10
2021,06,28,14,27,36.10
2021,06,28,14,28,36.10
2021,06,28,14,29,36.20
2021,06,28,14,30,36.20
2021,06,28,14,31,36.20
2021,06,28,14,32,36.20
2021,06,28,14,33,36.30
2021,06,28,14,34,36.30
2021,06,28,14,35,36.40
2021,06,28,14,36,36.40
2021,06,28,14,37,36.40
2021,06,28,14,38,36.40
2021,06,28,14,39,36.40
2021,06,28,14,40,36.40
2021,06,28,14,41,36.40
2021,06,28,14,42,36.40
2021,06,28,14,43,36.50
2021,06,28,14,44,36.50
2021,06,28,14,45,36.60
2021,06,28,14,46,36.70
2021,06,28,14,47,36.70
2021,06,28,14,48,36.80
2021,06,28,14,49,36.80
2021,06,28,14,50,36.80
2021,06,28,14,51,36.80
2021,06,28,14,52,36.80
2021,06,28,14,53,36.80
2021,06,28,14,54,36.80
2021,06,28,14,55,36.80
2021,06,28,14,56,36.80
2021,06,28,14,57,36.80
2021,06,28,14,58,36.80
2021,06,28,14,59,36.70
2021,06,28,15,00,36.60
2021,06,28,15,01,36.60
2021,06,28,15,02,36.60
2021,06,28,15,03,36.70
2021,06,28,15,04,36.70
2021,06,28,15,05,36.70
2021,06,28,15,06,36.70
2021,06,28,15,07,36.80
2021,06,28,15,08,36.80
2021,06,28,15,09,36.80
2021,06,28,15,10,36.80
2021,06,28,15,11,36.80
2021,06,28,15,12,36.80
2021,06,28,15,13,36.80
2021,06,28,15,14,36.90
2021,06,28,15,15,36.90
2021,06,28,15,16,36.90
2021,06,28,15,17,36.90
2021,06,28,15,18,36.90
2021,06,28,15,19,36.90
2021,06,28,15,20,36.90
2021,06,28,15,21,36.90
2021,06,28,15,22,36.90
2021,06,28,15,23,36.90
2021,06,28,15,24,36.90
2021,06,28,15,25,36.90
2021,06,28,15,26,36.90
2021,06,28,15,27,36.90
2021,06,28,15,28,36.90
2021,06,28,15,29,36.90
2021,06,28,15,30,37.00
2021,06,28,15,31,37.00
2021,06,28,15,32,37.10
2021,06,28,15,33,37.10
2021,06,28,15,34,37.10
2021,06,28,15,35,37.20
2021,06,28,15,36,37.20
2021,06,28,15,37,37.20
2021,06,28,15,38,37.30
2021,06,28,15,39,37.30
2021,06,28,15,40,37.40
2021,06,28,15,41,37.40
2021,06,28,15,42,37.40
2021,06,28,15,43,37.40
2021,06,28,15,44,37.40
2021,06,28,15,45,37.40
2021,06,28,15,46,37.40
2021,06,28,15,47,37.40
2021,06,28,15,48,37.40
2021,06,28,15,49,37.30
2021,06,28,15,50,37.30
2021,06,28,15,51,37.30
2021,06,28,15,52,37.30
2021,06,28,15,53,37.40
2021,06,28,15,54,37.40
2021,06,28,15,55,37.40
2021,06,28,15,56,37.50
2021,06,28,15,57,37.50
2021,06,28,15,58,37.50
2021,06,28,15,59,37.50
2021,06,28,16,00,37.60
2021,06,28,16,01,37.60
2021,06,28,16,02,37.60
2021,06,28,16,03,37.60
2021,06,28,16,04,37.70
2021,06,28,16,05,37.70
2021,06,28,16,06,37.70
2021,06,28,16,07,37.80
2021,06,28,16,08,37.80
2021,06,28,16,09,37.90
2021,06,28,16,10,37.90
2021,06,28,16,11,37.90
2021,06,28,16,12,37.90
2021,06,28,16,13,37.90
2021,06,28,16,14,38.00
2021,06,28,16,15,38.00
2021,06,28,16,16,38.10
2021,06,28,16,17,38.10
2021,06,28,16,18,38.20
2021,06,28,16,19,38.20
2021,06,28,16,20,38.30
2021,06,28,16,21,38.30
2021,06,28,16,22,38.20
2021,06,28,16,23,38.20
2021,06,28,16,24,38.20
2021,06,28,16,25,38.20
2021,06,28,16,26,38.30
2021,06,28,16,27,38.30
2021,06,28,16,28,38.30
2021,06,28,16,29,38.30
2021,06,28,16,30,38.40
2021,06,28,16,31,38.40
2021,06,28,16,32,38.50
2021,06,28,16,33,38.50
2021,06,28,16,34,38.60
2021,06,28,16,35,38.60
2021,06,28,16,36,38.70
2021,06,28,16,37,38.70
2021,06,28,16,38,38.70
2021,06,28,16,39,38.80
2021,06,28,16,40,38.80
2021,06,28,16,41,38.80
2021,06,28,16,42,38.80
2021,06,28,16,43,38.80
2021,06,28,16,44,38.80
2021,06,28,16,45,38.80
2021,06,28,16,46,38.80
2021,06,28,16,47,38.70
2021,06,28,16,48,38.50
2021,06,28,16,49,38.40
2021,06,28,16,50,38.40
2021,06,28,16,51,38.30
2021,06,28,16,52,38.30
2021,06,28,16,53,38.20
2021,06,28,16,54,38.10
2021,06,28,16,55,38.10
2021,06,28,16,56,38.00
2021,06,28,16,57,37.90
2021,06,28,16,58,37.90
2021,06,28,16,59,37.90
2021,06,28,17,00,37.90
2021,06,28,17,01,37.80
2021,06,28,17,02,37.90
2021,06,28,17,03,37.90
2021,06,28,17,04,37.90
2021,06,28,17,05,37.90
2021,06,28,17,06,37.90
2021,06,28,17,07,37.90
2021,06,28,17,08,37.90
2021,06,28,17,09,38.00
2021,06,28,17,10,38.00
2021,06,28,17,11,38.00
2021,06,28,17,12,38.00
2021,06,28,17,13,38.10
2021,06,28,17,14,38.20
2021,06,28,17,15,38.30
2021,06,28,17,16,38.30
2021,06,28,17,17,38.40
2021,06,28,17,18,38.40
2021,06,28,17,19,38.50